FW7813 Weather Reports


time (UTC)temp
C
wind
direction
speed
KPH
gust
KPH
rain 1hr
cm
rain 24hr
cm
rain mn
cm
humidity
%
barometer
mb
20260510142535 13 56 1.6 14.5 0.00 0.00 0.00 84 1019.9
20260510142032 13 13 3.2 14.5 0.00 0.00 0.00 84 1019.8
20260510141542 13 10 3.2 16.1 0.00 0.00 0.00 83 1020.0
20260510141029 13 325 4.8 27.4 0.00 0.00 0.00 82 1019.9
20260510140528 13 117 4.8 27.4 0.00 0.00 0.00 81 1019.6
20260510140042 14 319 3.2 22.5 0.00 0.00 0.00 80 1019.5
20260510135532 14 350 4.8 22.5 0.00 0.00 0.00 80 1019.4
20260510135032 14 53 6.4 22.5 0.00 0.00 0.00 80 1019.3
20260510134545 14 311 3.2 16.1 0.00 0.00 0.00 81 1018.9
20260510134031 14 315 4.8 19.3 0.00 0.00 0.00 81 1018.9
20260510133531 14 0 4.8 19.3 0.00 0.00 0.00 81 1018.8
20260510133044 14 331 3.2 20.9 0.00 0.00 0.00 81 1018.8
20260510132531 14 291 6.4 20.9 0.00 0.00 0.00 81 1018.6
20260510132034 14 0 3.2 16.1 0.00 0.00 0.00 81 1018.4
20260510131543 14 334 3.2 16.1 0.00 0.00 0.00 81 1018.2
20260510131032 14 317 3.2 17.7 0.00 0.00 0.00 80 1018.0
20260510130532 14 11 4.8 17.7 0.00 0.00 0.00 80 1017.7
20260510130042 15 17 3.2 17.7 0.00 0.00 0.00 79 1017.6
20260510125531 15 327 3.2 17.7 0.00 0.00 0.00 79 1017.5
20260510125034 15 55 3.2 17.7 0.00 0.00 0.00 79 1017.0
20260510124537 15 272 1.6 14.5 0.00 0.00 0.00 80 1017.0
20260510124032 15 78 3.2 14.5 0.00 0.00 0.00 80 1016.5
20260510123533 15 87 3.2 11.3 0.00 0.00 0.00 80 1016.4
20260510123046 15 53 1.6 11.3 0.00 0.00 0.00 80 1016.4
20260510122531 15 335 3.2 9.7 0.00 0.00 0.00 79 1016.2
20260510122030 15 340 1.6 9.7 0.00 0.00 0.00 79 1016.2
20260510121545 15 98 1.6 12.9 0.00 0.00 0.00 79 1015.9
20260510121032 15 0 3.2 12.9 0.00 0.00 0.00 79 1015.9
20260510120532 15 95 4.8 14.5 0.00 0.00 0.00 78 1015.8
20260510120044 16 46 3.2 14.5 0.00 0.00 0.00 78 1015.7
20260510115531 16 75 4.8 14.5 0.00 0.00 0.00 78 1015.5
20260510115031 16 51 3.2 12.9 0.00 0.00 0.00 78 1015.5
20260510114542 16 74 1.6 19.3 0.00 0.00 0.00 77 1015.6
20260510114031 16 77 3.2 19.3 0.00 0.00 0.00 77 1015.4
20260510113531 16 360 8.0 19.3 0.00 0.00 0.00 77 1015.2
20260510113043 16 58 4.8 19.3 0.00 0.00 0.00 76 1015.1
20260510112528 16 65 6.4 24.1 0.00 0.00 0.00 76 1014.9
20260510112030 16 99 6.4 24.1 0.00 0.00 0.00 75 1014.8
20260510111538 16 90 6.4 19.3 0.00 0.00 0.00 75 1014.7
20260510111031 16 82 4.8 16.1 0.00 0.00 0.00 75 1014.7
20260510110528 16 17 4.8 14.5 0.00 0.00 0.00 76 1015.0
20260510110044 16 51 4.8 17.7 0.00 0.00 0.00 77 1014.9
20260510105533 16 69 6.4 17.7 0.00 0.00 0.00 77 1015.0
20260510105035 16 71 4.8 17.7 0.00 0.00 0.00 78 1015.0
20260510104545 16 60 4.8 17.7 0.00 0.00 0.00 79 1015.0
20260510104031 16 18 6.4 17.7 0.00 0.00 0.00 79 1014.9
20260510103531 16 86 4.8 16.1 0.00 0.00 0.00 79 1014.5
20260510103048 16 290 1.6 16.1 0.00 0.00 0.00 80 1014.7
20260510102531 16 0 1.6 16.1 0.00 0.00 0.00 80 1014.3
20260510102032 16 65 3.2 16.1 0.00 0.00 0.00 80 1014.0
20260510101544 16 82 4.8 16.1 0.00 0.00 0.00 80 1014.0
20260510101028 16 92 3.2 12.9 0.00 0.00 0.00 79 1013.9
20260510100531 16 59 4.8 12.9 0.00 0.00 0.00 79 1014.0
20260510100106 16 42 4.8 12.9 0.00 0.00 0.00 79 1014.2
20260510095531 16 57 3.2 12.9 0.00 0.00 0.00 79 1014.0
20260510095028 16 22 3.2 12.9 0.00 0.00 0.00 79 1014.1
20260510094549 16 60 1.6 9.7 0.00 0.00 0.00 79 1014.3
20260510094033 16 94 1.6 11.3 0.00 0.00 0.00 79 1014.1
20260510093528 16 80 3.2 19.3 0.00 0.00 0.00 78 1013.6
20260510093049 16 59 3.2 19.3 0.00 0.00 0.00 78 1013.3
20260510092532 16 106 4.8 19.3 0.00 0.00 0.00 78 1013.0
20260510092032 16 90 4.8 16.1 0.00 0.00 0.00 77 1013.0
20260510091544 16 88 4.8 16.1 0.00 0.00 0.00 77 1013.0
20260510091033 16 0 3.2 16.1 0.00 0.00 0.00 77 1012.8
20260510090533 16 88 4.8 16.1 0.00 0.00 0.00 77 1012.8
20260510090052 16 67 3.2 12.9 0.00 0.00 0.00 76 1012.9
20260510085528 16 74 1.6 12.9 0.00 0.00 0.00 75 1012.8
20260510085031 17 0 1.6 12.9 0.00 0.00 0.00 75 1012.9
20260510084541 17 0 1.6 20.9 0.00 0.00 0.00 74 1012.9
20260510084031 17 47 3.2 20.9 0.00 0.00 0.00 74 1012.8
20260510083531 17 83 8.0 20.9 0.00 0.00 0.00 74 1012.8
20260510083045 17 32 6.4 16.1 0.00 0.00 0.00 73 1012.7
20260510082528 17 54 3.2 14.5 0.00 0.00 0.00 73 1012.9
20260510082031 17 100 3.2 19.3 0.00 0.00 0.00 72 1012.9
20260510081544 17 77 1.6 19.3 0.00 0.00 0.00 72 1012.7
20260510081028 17 0 4.8 16.1 0.00 0.00 0.00 71 1012.4
20260510080528 18 5 4.8 17.7 0.00 0.00 0.00 71 1012.4
20260510080045 18 86 6.4 20.9 0.00 0.00 0.00 71 1012.3
20260510075529 18 71 8.0 24.1 0.00 0.00 0.00 71 1012.2
20260510075029 18 80 9.7 24.1 0.00 0.00 0.00 70 1012.1
20260510074544 18 77 6.4 19.3 0.00 0.00 0.00 70 1011.9
20260510074030 18 90 9.7 19.3 0.00 0.00 0.00 70 1011.8
20260510073529 18 53 4.8 19.3 0.00 0.00 0.00 69 1011.6
20260510073044 19 78 8.0 19.3 0.00 0.00 0.00 70 1011.6
20260510072530 19 58 6.4 19.3 0.00 0.00 0.00 70 1011.5
20260510072034 19 88 3.2 9.7 0.00 0.00 0.00 70 1011.6
20260510071552 19 80 1.6 12.9 0.00 0.00 0.00 69 1011.8
20260510071030 19 40 3.2 16.1 0.00 0.00 0.00 69 1011.6
20260510070531 20 88 6.4 19.3 0.00 0.00 0.00 69 1011.7
20260510070041 20 101 6.4 20.9 0.00 0.00 0.00 69 1011.6
20260510065530 20 67 6.4 20.9 0.00 0.00 0.00 69 1011.4
20260510065027 20 98 6.4 19.3 0.00 0.00 0.00 69 1011.6
20260510064546 20 54 4.8 19.3 0.00 0.00 0.00 68 1011.5
20260510064030 20 44 6.4 19.3 0.00 0.00 0.00 68 1011.7
20260510063530 20 38 4.8 16.1 0.00 0.00 0.00 68 1011.4
20260510063046 20 36 6.4 25.7 0.00 0.00 0.00 68 1011.5
20260510062529 20 59 6.4 25.7 0.00 0.00 0.00 68 1011.6
20260510062029 20 119 8.0 25.7 0.00 0.00 0.00 67 1011.4
20260510061549 20 61 8.0 19.3 0.00 0.00 0.00 67 1011.3
20260510061028 21 77 8.0 27.4 0.00 0.00 0.00 67 1011.3
20260510060533 21 63 8.0 27.4 0.00 0.00 0.00 66 1011.5
20260510060044 21 103 8.0 17.7 0.00 0.00 0.00 66 1011.9
20260510055530 21 49 6.4 16.1 0.00 0.00 0.00 65 1012.1
20260510055031 21 105 4.8 16.1 0.00 0.00 0.00 63 1012.1
20260510054545 21 25 4.8 16.1 0.00 0.00 0.00 63 1011.9
20260510054031 21 85 4.8 16.1 0.00 0.00 0.00 63 1011.5
20260510053530 22 80 6.4 16.1 0.00 0.00 0.00 62 1011.4
20260510053049 22 360 6.4 14.5 0.00 0.00 0.00 62 1011.3
20260510052533 22 65 4.8 11.3 0.00 0.00 0.00 61 1011.4
20260510052030 22 76 1.6 11.3 0.00 0.00 0.00 61 1011.4
20260510051546 22 87 3.2 11.3 0.00 0.00 0.00 60 1011.3
20260510051030 22 90 3.2 9.7 0.00 0.00 0.00 60 1011.3
20260510050530 22 78 3.2 9.7 0.00 0.00 0.00 59 1011.3
20260510050044 22 76 1.6 9.7 0.00 0.00 0.00 58 1011.4
20260510045532 22 0 0.0 9.7 0.00 0.00 0.00 57 1011.3
20260510045031 22 0 1.6 6.4 0.00 0.00 0.00 57 1011.1
20260510044546 22 0 0.0 4.8 0.00 0.00 0.00 55 1011.2
20260510044031 22 178 0.0 9.7 0.00 0.00 0.00 57 1011.3
20260510043530 22 0 1.6 14.5 0.00 0.00 0.00 57 1010.7
20260510043047 22 169 4.8 14.5 0.00 0.00 0.00 57 1010.6
20260510042530 22 86 4.8 11.3 0.00 0.00 0.00 56 1010.5
20260510042032 22 106 1.6 9.7 0.00 0.00 0.00 55 1010.8
20260510041542 22 84 1.6 9.7 0.00 0.00 0.00 54 1010.8
20260510041029 22 0 0.0 4.8 0.00 0.00 0.00 52 1010.6
20260510040529 22 69 0.0 4.8 0.00 0.00 0.00 50 1010.6
20260510040039 22 69 1.6 4.8 0.00 0.00 0.00 49 1010.4
20260510035529 22 54 0.0 4.8 0.00 0.00 0.00 42 1010.4
20260510035032 22 45 0.0 3.2 0.00 0.00 0.00 39 1010.2
20260510034546 22 0 0.0 4.8 0.00 0.00 0.00 34 1010.3
20260510034030 22 0 0.0 4.8 0.00 0.00 0.00 28 1010.2
20260510033529 22 318 0.0 4.8 0.00 0.00 0.00 27 1010.4
20260510033059 22 0 0.0 6.4 0.00 0.00 0.00 26 1010.4
20260510032529 22 0 0.0 6.4 0.00 0.00 0.00 27 1010.5
20260510032029 22 0 0.0 9.7 0.00 0.00 0.00 25 1010.6
20260510031549 22 0 1.6 9.7 0.00 0.00 0.00 24 1010.3
20260510031030 21 99 3.2 8.0 0.00 0.00 0.00 22 1010.0
20260510030529 21 110 0.0 1.6 0.00 0.00 0.00 23 1009.5
20260510030042 21 0 0.0 1.6 0.00 0.00 0.00 23 1009.3
20260510025529 21 0 0.0 0.0 0.00 0.00 0.00 24 1009.1
20260510025029 21 0 0.0 3.2 0.00 0.00 0.00 24 1008.9
20260510024545 21 0 0.0 3.2 0.00 0.00 0.00 22 1008.8
20260510024029 21 0 0.0 0.0 0.00 0.00 0.00 21 1008.5
20260510023530 21 0 0.0 0.0 0.00 0.00 0.00 21 1008.5
20260510023045 22 0 0.0 0.0 0.00 0.00 0.00 20 1008.2
20260510022531 22 0 0.0 0.0 0.00 0.00 0.00 20 1008.1
20260510022029 23 0 0.0 0.0 0.00 0.00 0.00 19 1008.1
20260510021544 23 0 0.0 0.0 0.00 0.00 0.00 18 1008.1
20260510021028 24 0 0.0 0.0 0.00 0.00 0.00 17 1007.9
20260510020530 24 0 0.0 1.6 0.00 0.00 0.00 18 1007.9
20260510020046 25 0 0.0 3.2 0.00 0.00 0.00 17 1007.7
20260510015531 25 97 0.0 3.2 0.00 0.00 0.00 16 1007.7
20260510015029 26 0 0.0 3.2 0.00 0.00 0.00 17 1007.6
20260510014544 26 0 0.0 3.2 0.00 0.00 0.00 16 1007.5
20260510014029 27 0 0.0 3.2 0.00 0.00 0.00 15 1007.5
20260510013530 27 97 0.0 3.2 0.00 0.00 0.00 15 1007.5
20260510013042 28 0 0.0 3.2 0.00 0.00 0.00 14 1007.3
20260510012529 29 0 0.0 4.8 0.00 0.00 0.00 13 1007.2
20260510012030 29 0 0.0 4.8 0.00 0.00 0.00 13 1007.1
20260510011551 30 97 0.0 6.4 0.00 0.00 0.00 13 1007.2
20260510011028 30 97 0.0 6.4 0.00 0.00 0.00 12 1007.0
20260510010529 30 0 0.0 9.7 0.00 0.00 0.00 12 1007.1
20260510010045 30 57 0.0 9.7 0.00 0.00 0.00 12 1007.1
20260510005529 30 83 3.2 9.7 0.00 0.00 0.00 12 1007.0
20260510005029 31 89 3.2 9.7 0.00 0.00 0.00 12 1006.9
20260510004550 31 64 1.6 6.4 0.00 0.00 0.00 12 1007.0
20260510004029 31 0 1.6 6.4 0.00 0.00 0.00 12 1007.0
20260510003529 31 13 1.6 6.4 0.00 0.00 0.00 12 1007.0
20260510003102 31 312 0.0 6.4 0.00 0.00 0.00 12 1007.1
20260510002529 31 0 0.0 12.9 0.00 0.00 0.00 11 1006.9
20260510002030 31 314 0.0 12.9 0.00 0.00 0.00 12 1007.1
20260510001543 31 0 3.2 12.9 0.00 0.00 0.00 11 1007.1
20260510001029 31 0 0.0 6.4 0.00 0.00 0.00 11 1007.0
20260510000529 32 0 0.0 8.0 0.00 0.00 0.00 10 1007.2
20260510000045 32 311 1.6 12.9 0.00 0.00 0.00 11 1007.2
20260509235529 32 300 4.8 12.9 0.00 0.00 0.00 10 1007.3
20260509235029 32 314 1.6 8.0 0.00 0.00 0.00 11 1007.4
20260509234557 32 0 1.6 8.0 0.00 0.00 0.00 10 1007.4
20260509234029 33 303 1.6 8.0 0.00 0.00 0.00 10 1007.4
20260509233529 33 184 1.6 6.4 0.00 0.00 0.00 11 1007.4
20260509233041 32 234 1.6 9.7 0.00 0.00 0.00 11 1007.4
20260509232529 32 341 1.6 11.3 0.00 0.00 0.00 11 1007.5
20260509232029 32 206 3.2 11.3 0.00 0.00 0.00 10 1007.6
20260509231552 33 303 1.6 11.3 0.00 0.00 0.00 10 1007.4
20260509231032 33 275 1.6 12.9 0.00 0.00 0.00 11 1007.3
20260509230530 33 315 3.2 12.9 0.00 0.00 0.00 9 1007.4
20260509230053 33 305 4.8 12.9 0.00 0.00 0.00 10 1007.5
20260509225530 33 263 4.8 12.9 0.00 0.00 0.00 9 1007.5
20260509225028 33 309 3.2 14.5 0.00 0.00 0.00 10 1007.5
20260509224543 33 313 3.2 14.5 0.00 0.00 0.00 10 1007.5
20260509224029 34 304 3.2 16.1 0.00 0.00 0.00 10 1007.6
20260509223532 33 311 3.2 16.1 0.00 0.00 0.00 10 1007.7
20260509223044 33 298 4.8 16.1 0.00 0.00 0.00 10 1007.7
20260509222529 33 24 4.8 16.1 0.00 0.00 0.00 11 1007.5
20260509222029 33 36 4.8 16.1 0.00 0.00 0.00 11 1007.6
20260509221542 33 300 4.8 16.1 0.00 0.00 0.00 11 1007.6
20260509221029 33 210 3.2 16.1 0.00 0.00 0.00 13 1007.6
20260509220528 33 312 4.8 17.7 0.00 0.00 0.00 12 1007.7
20260509220040 33 254 3.2 17.7 0.00 0.00 0.00 12 1007.7
20260509215530 33 307 4.8 14.5 0.00 0.00 0.00 12 1007.7
20260509215028 33 259 3.2 16.1 0.00 0.00 0.00 13 1007.7
20260509214549 34 288 6.4 16.1 0.00 0.00 0.00 11 1007.7
20260509214029 34 271 4.8 14.5 0.00 0.00 0.00 12 1007.8
20260509213530 34 320 3.2 17.7 0.00 0.00 0.00 13 1007.8
20260509213045 34 286 4.8 17.7 0.00 0.00 0.00 14 1007.9
20260509212531 33 315 4.8 16.1 0.00 0.00 0.00 13 1007.9
20260509212030 33 0 4.8 16.1 0.00 0.00 0.00 14 1007.9
20260509211544 33 0 4.8 19.3 0.00 0.00 0.00 13 1007.9
20260509211029 33 238 4.8 19.3 0.00 0.00 0.00 14 1008.0
20260509210530 33 5 4.8 17.7 0.00 0.00 0.00 14 1008.0
20260509210048 33 300 4.8 17.7 0.00 0.00 0.00 15 1008.1
20260509205530 33 343 6.4 17.7 0.00 0.00 0.00 15 1008.1
20260509205028 33 5 4.8 17.7 0.00 0.00 0.00 16 1008.2
20260509204542 33 302 3.2 17.7 0.00 0.00 0.00 16 1008.4
20260509204029 33 288 4.8 17.7 0.00 0.00 0.00 17 1008.4
20260509203532 33 355 4.8 17.7 0.00 0.00 0.00 16 1008.6
20260509203041 33 277 3.2 16.1 0.00 0.00 0.00 17 1008.6
20260509202532 33 225 3.2 16.1 0.00 0.00 0.00 16 1008.8
20260509202029 33 304 3.2 17.7 0.00 0.00 0.00 17 1008.7
20260509201546 33 297 3.2 17.7 0.00 0.00 0.00 17 1008.8
20260509201029 33 325 4.8 14.5 0.00 0.00 0.00 17 1009.0
20260509200531 33 336 3.2 14.5 0.00 0.00 0.00 17 1008.9
20260509200053 33 262 3.2 14.5 0.00 0.00 0.00 18 1009.0
20260509195531 33 201 3.2 17.7 0.00 0.00 0.00 18 1009.1
20260509195029 33 232 3.2 19.3 0.00 0.00 0.00 19 1009.1
20260509194542 33 315 3.2 19.3 0.00 0.00 0.00 19 1009.1
20260509194033 33 217 4.8 19.3 0.00 0.00 0.00 17 1009.3
20260509193532 33 195 3.2 12.9 0.00 0.00 0.00 19 1009.3
20260509193044 33 303 1.6 16.1 0.00 0.00 0.00 19 1009.3
20260509192532 32 228 1.6 17.7 0.00 0.00 0.00 19 1009.5
20260509192032 32 236 6.4 17.7 0.00 0.00 0.00 20 1009.4
20260509191542 32 215 3.2 16.1 0.00 0.00 0.00 20 1009.5
20260509191032 32 355 4.8 16.1 0.00 0.00 0.00 20 1009.8
20260509190530 32 171 3.2 12.9 0.00 0.00 0.00 20 1009.9
20260509190045 32 5 1.6 14.5 0.00 0.00 0.00 21 1010.0
20260509185531 32 96 1.6 14.5 0.00 0.00 0.00 21 1010.0
20260509185032 32 163 3.2 17.7 0.00 0.00 0.00 21 1010.0
20260509184543 31 212 3.2 17.7 0.00 0.00 0.00 22 1010.1
20260509184035 31 237 8.0 17.7 0.00 0.00 0.00 20 1010.3
20260509183529 31 258 6.4 16.1 0.00 0.00 0.00 21 1010.3
20260509183121 32 192 6.4 14.5 0.00 0.00 0.00 21 1010.4
20260509182531 32 232 3.2 17.7 0.00 0.00 0.00 21 1010.5
20260509182029 32 231 4.8 20.9 0.00 0.00 0.00 22 1010.6
20260509181557 32 96 6.4 20.9 0.00 0.00 0.00 21 1010.7
20260509181032 32 12 1.6 17.7 0.00 0.00 0.00 23 1010.9
20260509180529 31 308 4.8 22.5 0.00 0.00 0.00 22 1011.1
20260509180040 31 102 1.6 22.5 0.00 0.00 0.00 24 1011.0
20260509175529 31 168 4.8 14.5 0.00 0.00 0.00 24 1011.3
20260509175029 31 65 4.8 14.5 0.00 0.00 0.00 25 1011.3
20260509174537 31 240 4.8 14.5 0.00 0.00 0.00 25 1011.4
20260509174028 30 248 3.2 14.5 0.00 0.00 0.00 25 1011.4
20260509173529 30 71 4.8 19.3 0.00 0.00 0.00 26 1011.6
20260509173044 30 242 4.8 19.3 0.00 0.00 0.00 26 1011.6
20260509172533 30 257 3.2 19.3 0.00 0.00 0.00 26 1011.7
20260509172033 30 196 4.8 19.3 0.00 0.00 0.00 27 1011.8
20260509171545 30 159 6.4 17.7 0.00 0.00 0.00 29 1011.9
20260509171032 30 57 3.2 14.5 0.00 0.00 0.00 29 1012.0
20260509170532 30 140 3.2 16.1 0.00 0.00 0.00 29 1011.9
20260509170043 30 180 6.4 16.1 0.00 0.00 0.00 29 1012.0
20260509165531 29 188 3.2 19.3 0.00 0.00 0.00 29 1012.1
20260509165032 28 156 8.0 19.3 0.00 0.00 0.00 30 1012.2
20260509164558 29 96 6.4 19.3 0.00 0.00 0.00 29 1012.2
20260509164032 28 175 6.4 19.3 0.00 0.00 0.00 30 1012.2
20260509163531 28 145 6.4 20.9 0.00 0.00 0.00 31 1012.4
20260509163051 28 155 4.8 20.9 0.00 0.00 0.00 32 1012.6
20260509162529 28 131 6.4 20.9 0.00 0.00 0.00 32 1012.6
20260509162028 28 113 6.4 19.3 0.00 0.00 0.00 33 1012.7
20260509161546 27 110 8.0 20.9 0.00 0.00 0.00 34 1012.6
20260509161028 27 127 3.2 20.9 0.00 0.00 0.00 35 1012.6
20260509160529 27 111 6.4 17.7 0.00 0.00 0.00 35 1012.7
20260509160045 27 156 4.8 16.1 0.00 0.00 0.00 35 1012.8
20260509155528 27 112 6.4 16.1 0.00 0.00 0.00 37 1012.8
20260509155032 27 179 6.4 16.1 0.00 0.00 0.00 38 1012.8
20260509154549 27 199 4.8 17.7 0.00 0.00 0.00 36 1012.8
20260509154033 26 224 4.8 17.7 0.00 0.00 0.00 38 1012.9
20260509153532 26 109 4.8 16.1 0.00 0.00 0.00 38 1012.8
20260509153042 26 141 6.4 16.1 0.00 0.00 0.00 41 1012.9
20260509152532 26 98 3.2 17.7 0.00 0.00 0.00 41 1013.0
20260509152032 25 118 4.8 17.7 0.00 0.00 0.00 43 1013.1
20260509151543 25 139 4.8 16.1 0.00 0.00 0.00 44 1013.0
20260509151033 25 182 3.2 16.1 0.00 0.00 0.00 45 1013.2
20260509150532 25 123 9.7 22.5 0.00 0.00 0.00 45 1013.2
20260509150047 25 84 4.8 22.5 0.00 0.00 0.00 45 1013.3
20260509145529 24 100 8.0 22.5 0.00 0.00 0.00 44 1013.3
20260509145032 24 90 3.2 17.7 0.00 0.00 0.00 45 1013.3
20260509144544 24 109 4.8 17.7 0.00 0.00 0.00 44 1013.4
20260509144029 23 188 3.2 11.3 0.00 0.00 0.00 46 1013.3
20260509143529 23 119 3.2 12.9 0.00 0.00 0.00 49 1013.4
20260509143043 22 85 3.2 12.9 0.00 0.00 0.00 51 1013.5